Weather in Nivenskoe

Russia / Kaliningrad Oblast     54°35′04″N   20°34′06″E
temp.,
°C
wind,
m/s
gust,
m/s
humid.,
%
clouds,
%
prec.,
mm/h
press.,
hPa
HPBL,
m
17 may, mon
mon1723:00+12s3896100 0.5 1002269
02:00+10ssw3795100 1.4 1003177
05:00+8ssw37960 0.0 1004127
08:00+13ssw34830 0.0 1004273
11:00+17sse22580 0.0 10051314
14:00+19se345265 0.0 10052005
17:00+18e236695 0.0 1004254
20:00+15e237899 0.2 100359
18 may, tue
tue1823:00+12ene23789 0.0 100449
02:00+9ese228997 0.0 100423
05:00+9ene1186100 0.0 100410
08:00+14nne1176100 0.0 1005261
11:00+17nnw226842 0.1 1005785
14:00+17nnw446954 1.1 10051094
17:00+16nw457049 0.6 1005713
20:00+10nw498872 0.6 1007328
19 may, wed
wed1923:00+8wnw499899 0.0 1007254
02:00+9wnw51093100 0.0 1008372
05:00+9wnw4986100 0.0 1008396
08:00+11w5882100 0.0 1009442
11:00+12wnw5779100 0.0 1009572
14:00+14wnw68705 0.1 1010736
17:00+12wnw68775 0.0 1011560
20:00+9wnw36864 0.0 1012224
20 may, thu
thu2023:00+6w369432 0.0 1013119
02:00+6w38941 0.0 1013171
05:00+6w499645 0.0 1014236
08:00+11wnw577798 0.0 1014452
11:00+13wnw566790 0.0 1015860
14:00+14wnw57625 0.0 10161058
17:00+13nw676898 0.0 1016810
20:00+9wnw411810 0.0 1017490
21 may, fri
fri2123:00+7w411850 0.0 1017427
02:00+6wsw410933 0.0 1017311
05:00+5wsw410945 0.0 1017291
08:00+10w68745 0.0 1017891
11:00+11w79575 0.0 10181409
14:00+14w5855100 0.0 10171782
17:00+14sw455950 0.0 10161260
20:00+11sse367998 0.0 1015135